Location: Goettingen
(51.5300°N, 9.9433°E)
Time: 11:48:49
(UTC+02:00)

ISS - Pass Details

Date: 22 May 2019
Orbit: 407 x 410 km, 51.6° (Epoch: 21 May)

Event Time Altitude Azimuth Distance (km) Brightness Sun altitude
Rises 22:40:35 0° 254° (WSW) 2,330 0.3 -10.3°
Reaches altitude 10° 22:42:40 10° 254° (WSW) 1,471 -0.7 -10.5°
Maximum altitude 22:45:57 78° 168° (SSE) 422 -3.9 -10.8°
Drops below altitude 10° 22:49:16 10° 82° (E) 1,475 -1.2 -11.1°
Sets 22:51:21 0° 81° (E) 2,338 -0.2 -11.3°
